Date String (YYYY-MM-DD hh:mm:ss) UTC,Instrument flags,Ambient pressure (hPa),Sample flow (lpm),Bypass flow (lpm),Sample temperature (°C),Ambient temperature (°C),ASC tube jacket temperature (°C),LED temperature (°C),Box temperature (°C),Sample RH (%),Span deviation,Mass concentration (μg/m³),Mass concentration (μg/m³),Mass concentration (μg/m³)
DateTimeUTC,F1_M11,P_M11,Q1_M11,Q2_M11,T1_M11,T2_M11,T3_M11,T4_M11,T5_M11,U1_M11,ZSPAN_M11,X0_M11,X2_M11,X1_M11
2022-12-16 14:00:00,,0823.3,5.04,0.00,21.4,19.8,00.0,30.3,23.0,03.6,0000.0,0002.99,0001.44,0001.30
2022-12-16 14:01:00,,0823.3,4.99,0.00,21.4,20.1,00.0,30.3,23.1,03.6,0000.0,0003.11,0001.47,0001.31
2022-12-16 14:02:00,,0823.3,5.00,0.00,21.5,21.2,00.0,30.2,23.3,03.6,0000.0,0002.20,0001.48,0001.31
2022-12-16 14:03:00,,0823.3,5.00,0.00,21.6,21.8,00.0,30.3,23.5,03.6,0000.0,0002.16,0001.52,0001.33
2022-12-16 14:04:00,,0823.3,4.99,0.00,21.6,21.2,00.0,30.3,23.4,03.6,0000.0,0002.15,0001.52,0001.33
2022-12-16 14:05:00,,0823.4,4.98,0.00,21.6,20.6,00.0,30.4,23.2,03.5,0000.0,0002.14,0001.51,0001.32
2022-12-16 14:06:00,,0823.4,5.05,0.00,21.5,20.3,00.0,30.4,23.2,03.6,0000.0,0002.14,0001.51,0001.32
2022-12-16 14:07:00,,0823.4,4.97,0.00,21.5,20.0,00.0,30.4,23.1,03.6,0000.0,0002.15,0001.51,0001.32
2022-12-16 14:08:00,,0823.4,4.98,0.00,21.4,19.5,00.0,30.3,22.9,03.6,0000.0,0002.15,0001.50,0001.33
2022-12-16 14:09:00,,0823.3,5.04,0.00,21.3,19.3,00.0,30.3,22.8,03.6,0000.0,0002.15,0001.49,0001.32
2022-12-16 14:10:00,,0823.4,4.99,0.00,21.3,20.3,00.0,30.2,23.0,03.6,0000.0,0002.25,0001.54,0001.32
2022-12-16 14:11:00,,0823.4,5.00,0.00,21.5,21.5,00.0,30.2,23.3,03.6,0000.0,0002.25,0001.54,0001.32
2022-12-16 14:12:00,,0823.4,5.01,0.00,21.6,22.1,00.0,30.2,23.5,03.6,0000.0,0002.19,0001.53,0001.31
2022-12-16 14:13:00,,0823.4,4.97,0.00,21.6,21.6,00.0,30.3,23.5,03.6,0000.0,0002.13,0001.54,0001.31
2022-12-16 14:14:00,,0823.4,5.01,0.00,21.6,21.1,00.0,30.4,23.4,03.6,0000.0,0002.13,0001.54,0001.31
2022-12-16 14:15:00,,0823.4,5.03,0.00,21.6,20.6,00.0,30.4,23.2,03.6,0000.0,0002.22,0001.58,0001.31
2022-12-16 14:16:00,,0823.4,4.97,0.00,21.5,20.1,00.0,30.4,23.1,03.6,0000.0,0002.26,0001.60,0001.32
2022-12-16 14:17:00,,0823.4,5.02,0.00,21.4,19.6,00.0,30.4,22.9,03.6,0000.0,0002.32,0001.62,0001.32
2022-12-16 14:18:00,,0823.4,4.97,0.00,21.3,19.3,00.0,30.3,22.8,03.7,0000.0,0003.43,0001.66,0001.32
2022-12-16 14:19:00,,0823.4,5.04,0.00,21.3,19.6,00.0,30.3,22.8,03.7,0000.0,0004.02,0001.71,0001.33
2022-12-16 14:20:00,,0823.4,4.96,0.00,21.4,20.8,00.0,30.3,23.1,03.7,0000.0,0004.12,0001.71,0001.33
2022-12-16 14:21:00,,0823.4,5.01,0.00,21.5,21.6,00.0,30.3,23.3,03.7,0000.0,0004.41,0001.70,0001.34
2022-12-16 14:22:00,,0823.4,4.99,0.00,21.5,21.1,00.0,30.3,23.3,03.7,0000.0,0004.61,0001.68,0001.34
2022-12-16 14:23:00,,0823.4,5.04,0.00,21.5,20.5,00.0,30.3,23.1,03.7,0000.0,0004.59,0001.67,0001.34
2022-12-16 14:24:00,,0823.6,4.96,0.00,21.4,19.9,00.0,30.3,22.9,03.8,0000.0,0004.67,0001.69,0001.34
2022-12-16 14:25:00,,0823.6,5.04,0.00,21.3,19.4,00.0,30.3,22.7,03.8,0000.0,0004.67,0001.69,0001.36
2022-12-16 14:26:00,,0823.6,4.96,0.00,21.2,19.1,00.0,30.3,22.6,03.8,0000.0,0004.58,0001.65,0001.36
2022-12-16 14:27:00,,0823.6,5.04,0.00,21.2,20.0,00.0,30.2,22.8,03.7,0000.0,0004.58,0001.65,0001.35
2022-12-16 14:28:00,,0823.5,4.96,0.00,21.3,21.2,00.0,30.2,23.1,03.7,0000.0,0004.54,0001.65,0001.34
2022-12-16 14:29:00,,0823.5,5.05,0.00,21.4,21.2,00.0,30.2,23.1,03.7,0000.0,0003.53,0001.63,0001.35
2022-12-16 14:30:00,,0823.6,4.97,0.00,21.3,20.4,00.0,30.2,23.0,03.8,0000.0,0003.05,0001.62,0001.34
2022-12-16 14:31:00,,0823.6,5.02,0.00,21.3,19.8,00.0,30.2,22.8,03.8,0000.0,0004.01,0001.61,0001.34
2022-12-16 14:32:00,,0823.7,5.00,0.00,21.2,19.3,00.0,30.2,22.6,03.9,0000.0,0004.26,0001.61,0001.35
2022-12-16 14:33:00,,0823.7,4.97,0.00,21.1,19.2,00.0,30.2,22.6,04.0,0000.0,0004.07,0001.64,0001.35
2022-12-16 14:34:00,,0823.7,5.05,0.00,21.1,19.6,00.0,30.1,22.7,03.9,0000.0,0004.13,0001.68,0001.36
2022-12-16 14:35:00,,0823.7,4.95,0.00,21.2,21.0,00.0,30.1,23.0,04.0,0000.0,0004.06,0001.64,0001.36
2022-12-16 14:36:00,,0823.7,5.01,0.00,21.3,21.6,00.0,30.1,23.2,03.9,0000.0,0004.87,0001.64,0001.35
2022-12-16 14:37:00,,0823.7,5.00,0.00,21.4,21.2,00.0,30.2,23.2,03.9,0000.0,0005.76,0001.68,0001.35
2022-12-16 14:38:00,,0823.7,5.00,0.00,21.4,20.8,00.0,30.2,23.1,03.9,0000.0,0005.88,0001.72,0001.36
2022-12-16 14:39:00,,0823.7,5.04,0.00,21.4,20.4,00.0,30.2,23.0,03.9,0000.0,0005.91,0001.75,0001.36
2022-12-16 14:40:00,,0823.7,4.98,0.00,21.3,20.1,00.0,30.2,23.0,03.9,0000.0,0005.83,0001.75,0001.37
2022-12-16 14:41:00,,0823.7,4.97,0.00,21.3,19.8,00.0,30.2,22.9,03.9,0000.0,0005.76,0001.74,0001.36
2022-12-16 14:42:00,,0823.7,5.05,0.00,21.3,19.6,00.0,30.2,22.8,03.8,0000.0,0004.78,0001.75,0001.38
2022-12-16 14:43:00,,0823.7,4.98,0.00,21.2,19.9,00.0,30.2,22.9,03.8,0000.0,0004.17,0001.74,0001.37
2022-12-16 14:44:00,,0823.7,5.00,0.00,21.3,21.1,00.0,30.1,23.2,03.8,0000.0,0004.17,0001.73,0001.36
2022-12-16 14:45:00,,0823.7,5.01,0.00,21.5,21.9,00.0,30.1,23.4,03.9,0000.0,0004.12,0001.71,0001.36
2022-12-16 14:46:00,,0823.7,5.00,0.00,21.5,21.4,00.0,30.2,23.3,03.8,0000.0,0004.13,0001.74,0001.37
2022-12-16 14:47:00,,0823.7,4.99,0.00,21.5,20.8,00.0,30.2,23.2,03.8,0000.0,0003.37,0001.77,0001.38
2022-12-16 14:48:00,,0823.8,5.01,0.00,21.4,20.3,00.0,30.2,23.1,03.8,0000.0,0004.57,0001.80,0001.39
2022-12-16 14:49:00,,0823.7,5.02,0.00,21.4,20.0,00.0,30.2,23.0,03.9,0000.0,0004.83,0001.79,0001.40
2022-12-16 14:50:00,,0823.7,4.98,0.00,21.4,19.9,00.0,30.2,23.0,04.0,0000.0,0004.80,0001.75,0001.40
2022-12-16 14:51:00,,0823.7,5.05,0.00,21.3,19.7,00.0,30.2,23.0,04.1,0000.0,0004.85,0001.78,0001.41
2022-12-16 14:52:00,,0823.8,4.98,0.00,21.3,19.9,00.0,30.2,23.0,04.1,0000.0,0004.88,0001.79,0001.42
2022-12-16 14:53:00,,0823.7,4.99,0.00,21.4,21.1,00.0,30.2,23.2,04.0,0000.0,0005.34,0001.80,0001.42
2022-12-16 14:54:00,,0823.7,5.02,0.00,21.5,22.0,00.0,30.2,23.5,04.0,0000.0,0006.28,0001.80,0001.43
2022-12-16 14:55:00,,0823.8,4.97,0.00,21.6,21.6,00.0,30.3,23.5,04.0,0000.0,0006.33,0001.84,0001.44
2022-12-16 14:56:00,,0823.7,5.05,0.00,21.6,21.1,00.0,30.3,23.4,04.0,0000.0,0006.60,0001.88,0001.45
2022-12-16 14:57:00,,0823.8,4.95,0.00,21.6,20.6,00.0,30.3,23.3,03.9,0000.0,0007.26,0001.90,0001.46
2022-12-16 14:58:00,,0823.8,5.05,0.00,21.5,20.1,00.0,30.3,23.1,03.8,0000.0,0007.26,0001.89,0001.46
2022-12-16 14:59:00,,0823.8,4.97,0.00,21.4,19.7,00.0,30.3,22.9,03.7,0000.0,0005.49,0001.80,0001.44
